Location: Bord�res
(43.2000°N, 0.2167°W)
Time: 12:09:52
(UTC+00:00)

Helios 1A Rocket - Pass Details

Date: 03 March 2021
Orbit: 564 x 584 km, 98.3° (Epoch: 21 April)

Event Time Altitude Azimuth Distance (km) Brightness Sun altitude
Rises 19:11:27 0° 170° (S) 2,767 6.2 -15.1°
Reaches altitude 10° 19:13:36 10° 172° (S) 1,871 5.4 -15.5°
Maximum altitude 19:17:39 73° 257° (WSW) 600 3.1 -16.3°
Drops below altitude 10° 19:21:42 10° 343° (NNW) 1,875 5.8 -17.0°
Sets 19:23:51 0° 345° (NNW) 2,774 6.7 -17.4°
